Regional Weather Roundup
Issued by NWS Sterling, VA

Home | Current Version | Previous Version | Graphics & Text | Print | Product List | Glossary On
Versions: 1 2 3 4 5 6 7 8 9 10 11 12 13 14 15 16 17 18 19 20 21 22 23 24 25 26 27 28 29 30 31 32 33 34 35 36 37 38 39 40 41 42 43 44 45 46 47 48 49 50
000
ASUS41 KLWX 211310
RWRLWX

REGIONAL WEATHER ROUNDUP
NATIONAL WEATHER SERVICE BALTIMORE MD/WASHINGTON DC
800 AM EST SUN DEC 21 2014

Note: "FAIR" indicates few or no clouds below 12,000 feet
with no significant weather and/or obstructions to visibility.
 TC=TEMPERATURE CELSIUS

 * =Non NWS site. Station does not report precipitation (e.g. rain,
    snow, etc.), thunder, or fog.

DCZ001-MDZ009-015-VAZ040>042-051-053>054-211400-
WASHINGTON METRO

CITY           SKY/WX    TMP DP  RH WIND       PRES   REMARKS
WASHINGTON NAT CLOUDY    37  24  59 E6        30.35R
DULLES         CLOUDY    32  24  72 NE5       30.34R
ANDREWS AFB    CLOUDY    31  26  81 N3        30.33R
QUANTICO       CLOUDY    34  26  72 NW5       30.36R
COLLEGE PARK*  CLOUDY    34  27  75 CALM      30.35R
LEESBURG*      CLOUDY    32  28  86 N3        30.34S
MANASSAS*      CLOUDY    34  30  86 N3        30.34R
GAITHERSBURG*  CLOUDY    30  21  69 CALM      30.36S

$$

MDZ006>007-011-014-211400-
BALTIMORE METRO

CITY           SKY/WX    TMP DP  RH WIND       PRES   REMARKS
BWI AIRPORT    MOCLDY    33  24  69 CALM      30.33S
MD SCIENCE CTR   N/A     35  22  58 MISG      30.35R
MARTIN STATE   MOCLDY    34  27  75 CALM      30.36S
ANNAPOLIS      CLOUDY    35  24  64 N5        30.34S
FORT MEADE*    CLOUDY    32  27  80 CALM      30.36S

$$

MDZ012-015-019>023-211400-
MARYLAND EASTERN SHORE

CITY           SKY/WX    TMP DP  RH WIND       PRES   REMARKS
OCEAN CITY     CLOUDY    32  27  81 NW3       30.34R
SALISBURY      CLOUDY    33  28  81 CALM      30.33S HAZE
BAY BRIDGE AP*   N/A     34  27  75 CALM      30.34S
CAMBRIDGE*     CLOUDY    32  32 100 CALM      30.33S
EASTON*        CLOUDY    32  32 100 CALM      30.37

$$

MDZ017>025-211400-
SOUTHERN MARYLAND

CITY           SKY/WX    TMP DP  RH WIND       PRES   REMARKS
PATUXENT RIVER CLOUDY    35  26  69 NW3       30.34R
ST INIGOES     CLOUDY    35  25  66 CALM      30.34R
LEONARDTOWN*   CLOUDY    32  27  80 CALM      30.35S

$$

MDZ003>005-211400-
NORTH CENTRAL MARYLAND

CITY           SKY/WX    TMP DP  RH WIND       PRES   REMARKS
FREDERICK*     CLOUDY    34  23  64 CALM      30.37R
HAGERSTOWN APT CLOUDY    30  23  75 CALM      30.31R HAZE
WESTMINSTER*   CLOUDY    28  21  74 CALM      30.30S

$$

MDZ501>502-211400-
WESTERN MARYLAND

CITY           SKY/WX    TMP DP  RH WIND       PRES   REMARKS
OAKLAND*       CLOUDY    23 N/A N/A W3        30.20R HAZE
CUMBERLAND*    CLOUDY    32  27  80 CALM      30.35S

$$

VAZ025>031-211400-
SHENANDOAH VALLEY

CITY           SKY/WX    TMP DP  RH WIND       PRES   REMARKS
WINCHESTER*    CLOUDY    32  23  69 CALM      30.31S
FRONT ROYAL*   CLOUDY    32  27  80 CALM      30.31R
LURAY*         CLOUDY    32  28  86 CALM      30.30R
NEW MARKET*    CLOUDY    31  25  80 CALM      30.30R
STAUNTON*      CLOUDY    32  27  83 CALM      30.30R
WAYNESBORO*    CLOUDY    30  25  82 CALM      30.27S

$$

WVZ021-048>050-054>055-211400-
EASTERN WEST VIRGINIA PANHANDLE

CITY           SKY/WX    TMP DP  RH WIND       PRES   REMARKS
MARTINSBURG    CLOUDY    31  22  69 CALM      30.32S
PETERSBURG*    CLOUDY    33  28  84 CALM      30.31R

$$

VAZ036>039-050-211400-
CENTRAL FOOTHILLS

CITY           SKY/WX    TMP DP  RH WIND       PRES   REMARKS
CHARLOTTESVILL CLOUDY    32  26  78 CALM      30.31R
CULPEPER*      CLOUDY    34  30  86 CALM      30.34R
ORANGE*        CLOUDY    32  30  93 CALM      30.34R
GORDONSVILLE*  CLOUDY    32  27  83 CALM      30.32R
WARRENTON*     CLOUDY    33  32  96 CALM      30.33S

$$

VAZ055>057-211400-
NORTH AND CENTRAL PIEDMONT

CITY           SKY/WX    TMP DP  RH WIND       PRES   REMARKS
FREDERICKSBRG* CLOUDY    34  30  85 CALM      30.33F
STAFFORD*      CLOUDY    32  32 100 CALM      30.38S

$$

NCZ024-NYZ072-PAZ021-071-VAZ022-071-211400-
OTHER REGIONAL OBSERVATIONS

CITY           SKY/WX    TMP DP  RH WIND       PRES   REMARKS
NEW YORK CITY  CLOUDY    31  24  75 CALM      30.32R
PHILADELPHIA   MOCLDY    32  21  64 NW5       30.34R
PITTSBURGH     CLOUDY    28  22  78 CALM      30.31R
ROANOKE        CLOUDY    35  28  75 CALM      30.29R
RICHMOND       CLOUDY    36  24  62 CALM      30.33R
RALEIGH        CLOUDY    38  33  82 CALM      30.31R FOG

$$

ANZ530>537-211400-
MARINE OBSERVATIONS

STATION/POSITION TIME  TEMP    WIND        PRES
                       AIR SEA DIR/SP/G
                 (UTC) (F)     (DEG/KT/KT) (MB)
THOMAS PT LIGHT  1300   35 40   10/  7/  8 1028.3S
BALT KEY BRIDGE  1300   34     350/  5/  5 1027.4R
COVE POINT       1300   35      60/  3/  4 1027.1R
LEWISETTA        1300   36 41   10/  4/  6 1027.1F
SOLOMONS ISLAND  1300      42                N/A

$$



USA.gov is the U.S. government's official web portal to all federal, state and local government web resources and services.